Location: Sternwarte ZA, Rosenfeld-Brittheim
(48.2889°N, 8.6789°E)
Time: 17:37:13
(UTC+02:00)

ISS - Pass Details

Date: 27 May 2020
Orbit: 417 x 420 km, 51.6° (Epoch: 26 May)

Event Time Altitude Azimuth Distance (km) Brightness Sun altitude
Rises 00:44:49 0° 287° (WNW) 2,368 0.4 -19.9°
Reaches altitude 10° 00:47:17 10° 270° (W) 1,501 -0.9 -19.9°
Enters shadow 00:48:01 14° 260° (W) 1,292 -1.3 -20.0°
